Regional Weather Roundup
Issued by NWS

Home | Current Version | Previous Version | Text Only | Print | Product List | Glossary On
Versions: 1 2 3 4 5 6 7 8 9 10 11 12 13 14 15 16 17 18 19 20 21 22 23 24 25 26 27 28 29 30 31 32 33 34 35 36 37 38 39 40 41 42 43 44 45 46 47 48 49 50
000
ASUS44 KOUN 231400
RWROK

WEATHER ROUNDUP FOR OKLAHOMA
NATIONAL WEATHER SERVICE NORMAN OK
900 AM CDT SUN APR 23 2017

NOTE: "FAIR" INDICATES FEW OR NO CLOUDS BELOW 12,000 FEET WITH NO
      SIGNIFICANT WEATHER AND/OR OBSTRUCTIONS TO VISIBILITY.

OKZ001>007-009>012-014-015-017-231500-
NORTHWEST OKLAHOMA AND THE PANHANDLE

CITY           SKY/WX    TMP DP  RH WIND       PRES   REMARKS
GAGE           SUNNY     47  40  76 W9        30.22F
GUYMON         SUNNY     48  39  71 S7        30.20F
ENID/WOODRING  SUNNY     54  41  62 NW6       30.19S
$$

OKZ016-021>023-033>039-044-045-231500-
SOUTHWEST OKLAHOMA

CITY           SKY/WX    TMP DP  RH WIND       PRES   REMARKS
LAWTON/REGL    SUNNY     55  42  61 N9        30.21S
LAWTON/FT SILL SUNNY     54  41  61 N8        30.20S
FREDERICK      SUNNY     52  41  66 NW7       30.21R
CLINTON        SUNNY     52  39  61 NW8       30.24R
HOBART         SUNNY     50  41  71 NW8       30.24R
ALTUS AFB      SUNNY     51  37  59 N8        30.23S
$$

OKZ018>020-024>031-231500-
CENTRAL OKLAHOMA

CITY           SKY/WX    TMP DP  RH WIND       PRES   REMARKS
OKLAHOMA CITY  SUNNY     52  40  63 N9        30.20R
OKC/WILEY POST SUNNY     51  41  68 N7        30.20F
OKC/TINKER AFB SUNNY     50  39  66 N7        30.18S
STILLWATER     SUNNY     53  39  59 N7        30.19S
GUTHRIE        SUNNY     48  41  76 NW5       30.20S
$$

OKZ008-013-054>072-231500-
NORTHEAST OKLAHOMA

CITY           SKY/WX    TMP DP  RH WIND       PRES   REMARKS
TULSA          SUNNY     51  42  71 N3        30.16S
TULSA/JONES    SUNNY     54  39  57 N6        30.17S
PONCA CITY     SUNNY     51  40  65 CALM      30.19S
BARTLESVILLE   SUNNY     54  42  64 VRB3      30.19R
MUSKOGEE       SUNNY     53  44  71 N8        30.16S
$$

OKZ032-040>043-046>053-073>077-231500-
SOUTH CENTRAL/SOUTHEAST OKLAHOMA

CITY           SKY/WX    TMP DP  RH WIND       PRES   REMARKS
MCALESTER      MOSUNNY   55  44  66 N7        30.15S
$$




USA.gov is the U.S. government's official web portal to all federal, state and local government web resources and services.